Regional Weather Roundup
Issued by NWS

Home | Current Version | Previous Version | Graphics & Text | Print | Product List | Glossary On
Versions: 1 2 3 4 5 6 7 8 9 10 11 12 13 14 15 16 17 18 19 20 21 22 23 24 25 26 27 28 29 30 31 32 33 34 35 36 37 38 39 40 41 42 43 44 45 46 47 48 49 50
000
ASUS44 KMEG 250710
RWRTN
TENNESSEE HOURLY STATE WEATHER ROUNDUP
NATIONAL WEATHER SERVICE MEMPHIS TN
200 AM CDT SAT OCT 25 2014

TNZ002-004-019-021-049-052-054-088>092-250800-
WEST TENNESSEE

CITY           SKY/WX    TMP DP  RH WIND       PRES   REMARKS
MEMPHIS INTL   CLEAR     59  54  83 CALM      30.09R
NWS MEMPHIS      N/A     53 N/A N/A MISG        N/A
JACKSON        CLEAR     47  45  93 CALM      30.09S
DYERSBURG      CLEAR     52  43  71 CALM      30.08S
UNION CITY     CLEAR     48  46  93 S3        30.06R
PARIS          PTCLDY    46  45  93 CALM      30.07F
HUNTINGDON     CLEAR     46  45  97 CALM      30.08F
LEXINGTON        N/A     45  45 100 CALM      30.08S VSB 1/4
SAVANNAH       CLEAR     45  45 100 CALM      30.10S
$$

TNZ008-025-027-028-033-062-065-066-250800-
NORTH MIDDLE TENNESSEE

CITY           SKY/WX    TMP DP  RH WIND       PRES   REMARKS
NASHVILLE      PTCLDY    48  46  93 S3        30.09S
CLARKSVILLE    FOG       46  46 100 CALM      30.07F VSB 1/4
SMYRNA         FOG       45  45 100 CALM      30.10S VSB 1/4
COOKEVILLE     CLEAR     39  39 100 CALM      30.08F
CROSSVILLE     CLEAR     44  39  82 CALM      30.10S
$$

TNZ061-075-076-078-094-096-097-250800-
SOUTH MIDDLE TENNESSEE

CITY           SKY/WX    TMP DP  RH WIND       PRES   REMARKS
FAYETTEVILLE   CLEAR     45  43  93 MISG      30.09S
TULLAHOMA      CLEAR     43  39  87 CALM      30.10S
WINCHESTER     CLEAR     43  41  93 CALM      30.10R
MCMINNVILLE    CLEAR     43  43 100 CALM      30.09S
COLUMBIA         N/A    N/A N/A N/A CALM      30.08S
SHELBYVILLE    CLEAR     43  43 100 CALM      30.10S
$$

TNZ017-018-042-046-047-250800-
NORTHEAST TENNESSEE

CITY           SKY/WX    TMP DP  RH WIND       PRES   REMARKS
TRI CITIES     CLEAR     39  38  96 CALM      30.09S
ELIZABETHTON   SUNNY     36  36 100 CALM      30.09S
$$

TNZ012-013-036-069-073-074-250800-
CENTRAL EAST TENNESSEE

CITY           SKY/WX    TMP DP  RH WIND       PRES   REMARKS
KNOXVILLE      CLEAR     44  41  89 NE3       30.08R
OAK RIDGE      PTCLDY    43  40  89 CALM      30.10S
GATLINBURG     SUNNY     39  37  93 CALM      30.08S
MORRISTOWN     SUNNY     43  41  93 CALM      30.09R
$$

TNZ083-085-099-250800-
SOUTHEAST TENNESSEE

CITY           SKY/WX    TMP DP  RH WIND       PRES   REMARKS
CHATTANOOGA    CLEAR     46  43  89 CALM      30.08S
$$

SKY/WX REPORTED AS FAIR MEANS FEW OR NO CLOUDS BELOW
12 THOUSAND FEET.




USA.gov is the U.S. government's official web portal to all federal, state and local government web resources and services.